Date,TemperatureHighF,TemperatureAvgF,TemperatureLowF,DewpointHighF,DewpointAvgF,DewpointLowF,HumidityHigh,HumidityAvg,HumidityLow,PressureMaxIn,PressureMinIn,WindSpeedMaxMPH,WindSpeedAvgMPH,GustSpeedMaxMPH,PrecipitationSumIn
2013-2-1,70.2,52.3,36.7,40.0,33.1,26.0,75,50,28,30.37,30.16,13,4,22,0.00
2013-2-2,71.2,56.2,42.7,52.0,43.4,35.0,91,64,45,30.31,30.17,9,3,14,0.00
2013-2-3,70.0,53.8,33.9,44.0,32.9,25.0,89,52,19,30.35,30.01,13,4,18,0.00
2013-2-4,76.4,63.7,55.1,58.0,53.3,45.0,90,71,45,30.00,29.77,11,4,22,0.00
2013-2-5,76.2,59.5,44.8,53.0,48.0,41.0,93,70,34,29.99,29.84,7,3,11,0.00
2013-2-6,74.6,62.2,51.8,61.0,55.2,48.0,94,79,59,29.98,29.81,13,4,16,0.03
2013-2-7,82.9,67.3,55.9,60.0,52.5,36.0,92,65,23,30.10,29.83,16,6,21,0.00
2013-2-8,67.6,54.7,45.8,45.0,32.8,23.0,73,48,19,30.24,30.09,15,5,18,0.00
2013-2-9,67.3,56.0,45.1,65.0,52.5,32.0,96,88,59,30.10,29.75,14,6,19,0.00
2013-2-10,68.5,59.5,52.0,65.0,44.0,28.0,93,62,26,29.99,29.68,20,4,37,0.29
2013-2-11,56.3,50.4,48.0,48.0,46.2,42.0,93,86,63,30.10,30.00,9,4,15,0.34
2013-2-12,69.5,54.0,43.0,54.0,45.4,28.0,96,77,24,30.06,29.81,17,6,27,0.02
2013-2-13,59.9,46.6,34.9,39.0,34.2,29.0,90,65,32,30.18,30.04,11,3,22,0.00
2013-2-14,70.8,52.4,35.8,44.0,35.4,29.0,92,59,22,30.13,29.98,9,2,17,0.00
2013-2-15,57.7,47.1,37.9,40.0,33.7,21.0,84,61,37,30.41,30.07,14,5,21,0.00
2013-2-16,64.3,46.3,28.8,32.0,27.5,23.0,83,52,25,30.46,30.20,10,3,19,0.00
2013-2-17,71.5,55.2,33.6,50.0,35.8,28.0,81,52,26,30.20,29.93,21,7,26,0.00
2013-2-18,79.2,66.0,53.1,58.0,44.6,20.0,80,52,13,30.09,29.80,20,9,29,0.00
2013-2-19,65.4,54.1,39.0,34.0,29.6,22.0,71,42,20,30.29,30.08,15,6,20,0.00
2013-2-20,56.2,51.5,48.2,51.0,40.9,31.0,96,70,39,30.11,29.67,17,8,23,0.05
2013-2-21,72.6,61.1,45.9,63.0,40.1,20.0,97,55,14,29.85,29.58,23,6,35,0.13
2013-2-22,55.2,45.4,35.8,40.0,32.2,26.0,85,62,41,30.09,29.85,14,5,16,0.00
2013-2-23,67.1,48.0,32.1,37.0,31.6,25.0,86,58,21,30.09,29.90,15,3,17,0.00
2013-2-24,73.5,55.8,35.0,56.0,43.1,32.0,89,65,36,29.93,29.55,18,6,23,0.00
2013-2-25,61.9,52.1,43.6,59.0,37.9,26.0,93,61,30,29.82,29.53,32,12,43,0.05
2013-2-26,62.9,49.0,36.6,33.0,30.9,29.0,75,52,29,29.96,29.82,17,6,29,0.00
2013-2-27,60.9,48.2,36.0,34.0,27.6,20.0,80,48,25,30.26,29.85,20,6,33,0.00
2013-2-28,61.4,46.5,33.3,32.0,26.5,23.0,80,50,25,30.35,30.21,15,5,20,0.00